Regional Weather Roundup
Issued by NWS

Home | Current Version | Previous Version | Text Only | Print | Product List | Glossary Off
Versions: 1 2 3 4 5 6 7 8 9 10 11 12 13 14 15 16 17 18 19 20 21 22 23 24 25 26 27 28 29 30 31 32 33 34 35 36 37 38 39 40 41 42 43 44 45 46 47 48 49 50

000
ASUS43 KIND 240409
RWRIN

WEATHER ROUNDUP FOR INDIANA
NATIONAL WEATHER SERVICE INDIANAPOLIS IN
1200 AM EDT MON APR 24 2017

NOTE: "FAIR" INDICATES FEW OR NO CLOUDS BELOW 12,000 FEET WITH NO
SIGNIFICANT WEATHER AND/OR OBSTRUCTIONS TO VISIBILITY.

* - STATION DOES NOT REPORT WEATHER SUCH AS PRECIPITATION OR FOG.

+ - STATION NOT QUALITY CONTROLLED BY THE NATIONAL WEATHER SERVICE.
    USE DATA WITH CAUTION...ESPECIALLY DEWPOINT AND RELATIVE
    HUMIDITY OBSERVATIONS.

INZ001>003-010>013-019-020-240500-
NORTHWEST INDIANA

CITY           SKY/WX    TMP DP  RH WIND       PRES   REMARKS
GARY /AIRPORT/ CLEAR     49  42  77 NE5       30.05S
KNOX *+        CLEAR     43  18  36 N3        30.04F
LA PORTE +     CLEAR     46  32  58 CALM      30.05F
MICHIGAN CITY+ CLEAR     41  34  75 CALM      30.05F
MONTICELLO +   CLEAR     55  32  42 NE6       30.02F
RENSSELAER +   CLEAR     50  28  43 NE7       30.04F
VALPARAISO     CLEAR     50  29  44 E5        30.04F

$$

LMZ046-743>745-240500-
SOUTHERN LAKE MICHIGAN

STATION/POSITION TIME  TEMP    WIND        PRES    WAVE
                       AIR SEA DIR/SP/G            HT
                 (UTC) (F)     (DEG/KT/KT) (MB)    (FT)
BURNS HARBOR     0340   56      90/  7/ 10 1017.6F
MICHIGAN CITY    0340   53      90/  6/  7   N/A

$$

INZ004-005-014>016-021>024-240500-
NORTH CENTRAL INDIANA

CITY           SKY/WX    TMP DP  RH WIND       PRES   REMARKS
GOSHEN         CLEAR     50  34  54 NE5       30.05S
LOGANSPORT +   CLEAR     50  37  62 N5        30.03F
PERU/GRISSOM   CLEAR     52  32  47 E6        30.01F
ROCHESTER +    CLEAR     55  32  41 N3        30.05S
SOUTH BEND     CLEAR     45  32  60 CALM      30.05F
WARSAW +       CLEAR     46  37  71 CALM      30.05S

$$

INZ006>009-017-018-025>027-240500-
NORTHEAST INDIANA

CITY           SKY/WX    TMP DP  RH WIND       PRES   REMARKS
ANGOLA *+      CLEAR     46  45  93 CALM      30.05S
AUBURN +       CLEAR     48  36  61 CALM      30.05S
FORT WAYNE     CLEAR     52  29  41 E5        30.04F
HUNTINGTON +   CLEAR     53  30  40 E3        30.03F
KENDALLVILLE + CLEAR     49  38  63 SE3       30.05S

$$

INZ028-029-035-036-043>045-051>053-240500-
WEST CENTRAL INDIANA

CITY           SKY/WX    TMP DP  RH WIND       PRES   REMARKS
CRAWFORDSVL +  CLEAR     47  32  55 NE6       30.01F
GREENCASTLE +  CLEAR     50  32  50 NE3       30.01S
LAFAYETTE      CLEAR     50  40  68 NE3       30.01F
TERRE HAUTE    CLEAR     49  31  49 NE3       30.00S

$$

INZ030>032-037>040-046>048-054>057-064-065-240500-
CENTRAL INDIANA

CITY           SKY/WX    TMP DP  RH WIND       PRES   REMARKS
CP ATTERBURY + CLEAR     54  32  43 NE8       29.99F
FISHERS *+     CLEAR     52  36  54 CALM      30.00F
FRANKFORT +    CLEAR     55  32  42 E7        30.04S
GREENWOOD *+   CLEAR     58  27  30 NE9       30.00F
INDIANAPOLIS   CLEAR     54  30  40 NE8       30.00S
-EAGLE CREEK   CLEAR     57  30  35 NE6       29.99F
KOKOMO +       CLEAR     51  34  52 E7        30.03F
MARION +       CLEAR     54  32  43 E8        30.03F
SHELBYVILLE    CLEAR     56  31  38 NE9       29.98F
ZIONSVILLE +   CLEAR     51  32  48 NE8       30.02F

$$

INZ033-034-041-042-049-050-058-059-240500-
EAST CENTRAL INDIANA

CITY           SKY/WX    TMP DP  RH WIND       PRES   REMARKS
MUNCIE         PTCLDY    53  32  44 E8        30.02S
RICHMOND +     CLEAR     48  34  57 NE9       30.01S

$$

INZ060-061-067>069-081>083-085>088-240500-
SOUTHWEST INDIANA

CITY           SKY/WX    TMP DP  RH WIND       PRES   REMARKS
EVANSVILLE     PTCLDY    57  35  43 NE7       29.95F
HUNTINGBURG *+ MOCLDY    55  37  50 NE7       29.96S
WASHINGTON +   CLEAR     52  39  61 MISG      29.96F

$$

INZ062-063-066-070>080-084-089>092-240500-
SOUTH CENTRAL AND SOUTHEAST INDIANA

CITY           SKY/WX    TMP DP  RH WIND       PRES   REMARKS
BEDFORD +      PTCLDY   N/A N/A N/A N6        29.96S
BLOOMINGTON    CLEAR     58  29  33 NE7       29.98F
MADISON *+     MOCLDY    55  34  44 E3        29.97S
NORTH VERNON + CLOUDY    54  39  58 N5        29.97F

$$




USA.gov is the U.S. government's official web portal to all federal, state and local government web resources and services.